Temperature
12 12 11 11 10 10 10 10 10 10 10 10 10 10 10 11 11 11 11 11 11 12 12 12 12 13 13 14 14 15 15 16 16 16 16 16 16 16 15 15 15 16 16
12 11 11 10 10 10 9 9 9 9 9 9 9 10 10 10 10 11 11 11 11 11 11 12 12 12 12 13 13 14 14 15 15 15 15 15 15 15 15 15 15 15 15
11 11 10 10 10 9 9 9 9 9 9 9 9 9 9 9 10 10 10 11 11 11 11 11 11 12 12 12 12 13 14 14 14 14 15 15 15 14 14 14 14 14 14
10 10 10 9 9 9 9 9 9 8 8 9 9 9 9 9 9 9 10 10 10 11 11 11 11 11 11 12 12 12 13 13 14 14 14 14 14 14 14 14 13 13 13
10 9 9 9 9 9 8 8 8 8 8 8 8 8 8 8 9 9 9 10 10 10 10 11 11 11 11 11 11 11 12 12 13 13 13 13 13 13 13 13 13 12 12
9 9 9 9 8 8 8 8 8 8 8 8 8 8 8 8 8 9 9 9 9 10 10 10 10 11 11 11 11 11 11 12 12 13 13 13 13 14 13 13 13 12 12
9 9 9 8 8 8 8 8 8 8 8 8 8 8 8 8 8 8 8 9 9 9 9 10 10 11 11 11 11 11 11 11 11 12 12 13 13 14 13 13 13 13 13
9 9 8 8 8 8 8 8 8 8 8 8 8 7 7 7 8 8 8 8 8 9 9 9 10 10 10 11 10 10 11 11 11 12 12 13 13 13 14 14 13 13 12
9 8 8 8 8 8 8 8 8 8 7 7 7 7 7 7 7 7 7 8 8 8 9 9 9 10 10 10 10 10 10 10 11 11 12 12 12 13 13 13 12 12 12
8 8 8 8 8 8 8 8 8 8 7 7 7 7 7 7 7 7 7 7 7 8 8 9 9 9 9 10 10 10 10 10 10 11 11 12 12 12 13 13 13 12 12
8 8 8 8 8 8 8 8 8 8 7 7 7 7 7 7 7 7 7 7 7 7 8 8 9 9 9 10 10 10 10 10 10 10 11 11 12 12 12 12 13 13 13
8 8 8 8 8 8 8 8 8 8 7 7 7 7 7 7 7 7 7 7 7 7 7 8 8 9 9 9 9 9 9 10 10 10 10 11 11 12 12 12 12 12 12
8 8 8 8 8 8 8 8 8 7 7 7 7 7 7 7 7 7 7 7 7 7 7 8 8 8 9 9 9 9 9 9 10 10 10 10 11 12 12 12 12 12 12
8 8 8 8 8 8 8 8 7 7 7 7 7 6 6 6 7 7 7 7 7 7 7 7 7 8 8 9 9 9 9 9 9 10 10 10 11 11 11 11 12 11 11
8 8 8 8 8 8 8 8 8 7 7 7 6 6 6 6 6 6 6 6 6 7 7 7 7 8 8 8 8 9 9 9 9 9 10 10 11 11 11 11 11 11 11
8 8 8 8 8 8 8 8 8 7 7 7 6 6 6 6 6 6 6 6 6 7 7 7 7 7 8 8 8 9 9 9 9 9 10 10 10 10 11 11 11 11 11
8 8 8 8 8 8 8 8 8 8 7 7 7 6 6 6 6 6 6 6 7 7 7 7 7 8 8 8 9 9 9 9 10 10 10 10 10 10 10 10 10 10 10
8 8 8 8 8 8 8 8 8 8 7 7 7 7 6 6 6 6 6 6 7 7 7 7 8 8 8 9 9 10 10 10 10 10 10 10 10 10 10 10 10 10 10
8 8 9 9 9 9 9 9 8 8 7 7 7 7 7 7 6 6 7 7 7 7 7 8 8 8 9 9 9 10 10 10 10 10 10 10 10 10 10 10 10 10 10
8 9 9 9 9 9 9 9 8 8 8 8 7 7 7 7 7 7 7 7 7 7 8 8 8 9 9 9 9 10 10 10 10 10 10 10 10 10 10 10 10 9 9
9 9 9 9 9 9 9 9 9 8 8 8 8 7 7 7 7 7 7 7 8 8 8 8 9 9 9 9 9 10 10 10 9 9 10 10 9 9 9 9 9 9 9
9 9 9 9 9 9 9 9 9 8 8 8 8 8 8 8 8 8 8 8 8 8 8 9 9 9 9 9 9 9 9 9 9 9 9 9 9 9 9 9 9 9 9
9 9 10 10 10 10 9 9 9 9 8 8 8 8 8 8 8 8 8 8 8 8 8 9 9 9 9 9 9 9 9 9 9 9 9 9 9 9 9 9 9 9 9
9 9 10 10 10 10 10 9 9 9 8 8 8 8 8 8 8 8 8 8 8 8 8 8 8 9 9 9 9 9 9 9 9 9 9 9 9 9 9 9 9 9 10
9 9 10 10 10 10 10 9 9 9 9 9 8 8 8 8 8 8 8 8 8 8 8 8 8 8 8 8 9 9 9 9 9 9 9 9 9 9 9 9 9 9 10
9 9 10 10 10 10 10 9 9 9 9 9 9 9 8 8 8 8 8 8 8 8 8 8 8 8 8 8 8 8 8 8 8 9 8 8 9 9 9 9 9 10 10
Wind_Speed
8 7 8 7 8 9 9 10 9 10 10 10 10 10 10 10 9 9 9 8 8 7 7 6 6 5 5 4 4 4 4 3 3 2 2 7 9 10 8 10 11 10 9
8 8 8 8 8 9 11 10 10 10 10 11 10 10 11 12 10 10 11 11 10 9 9 8 8 6 6 5 5 5 5 4 3 3 3 6 8 10 9 8 7 10 10
10 9 9 10 10 10 10 10 10 10 10 11 11 11 11 11 11 11 11 11 11 10 10 10 9 8 8 6 6 6 5 6 4 4 4 4 6 8 9 8 9 7 9
11 11 11 10 11 11 11 11 11 11 11 11 11 11 12 12 12 12 12 11 11 11 11 10 10 10 9 8 7 6 6 6 6 6 5 6 6 8 8 8 8 6 7
12 12 12 11 11 11 11 11 11 12 14 11 11 12 11 12 13 13 12 14 12 11 11 11 11 12 12 10 8 6 6 6 6 7 7 6 6 9 9 7 8 7 6
12 13 12 12 12 12 12 12 12 11 11 11 12 13 13 14 15 13 10 10 10 10 11 11 11 11 12 14 12 10 8 7 7 7 7 8 9 8 8 9 9 9 5
12 13 13 13 13 13 15 14 13 12 12 12 12 12 13 13 16 16 14 10 10 10 10 10 12 13 13 11 12 12 10 10 9 7 7 8 9 10 11 12 11 10 6
13 13 13 14 14 13 13 14 13 11 11 12 12 13 12 14 16 16 15 13 11 11 11 10 11 10 9 11 11 11 10 10 11 9 7 6 5 7 10 10 11 8 8
14 14 15 15 15 15 15 14 13 11 12 12 12 12 13 13 15 15 14 11 11 12 12 12 11 11 11 11 10 9 9 8 11 12 11 8 7 8 9 8 11 11 9
14 15 15 15 15 15 15 13 12 10 11 12 12 11 12 12 13 14 14 10 10 10 9 10 12 11 11 12 9 8 8 7 7 8 8 8 8 9 12 11 12 12 11
15 15 15 14 14 14 12 11 11 11 11 11 11 11 10 10 10 13 15 10 9 8 8 8 8 11 13 14 11 7 6 5 6 7 7 7 7 8 9 10 10 10 10
15 16 16 15 15 13 11 11 11 10 11 10 9 9 7 7 7 9 13 13 8 6 5 5 5 11 13 14 10 7 7 5 4 6 7 7 7 8 9 10 10 8 6
15 16 16 16 14 12 11 11 10 8 7 8 7 7 6 5 4 6 10 11 9 4 2 1 4 10 10 9 10 9 8 4 5 5 7 7 6 7 8 8 8 8 6
15 15 15 14 14 11 9 8 7 7 7 7 7 7 6 5 3 1 4 6 7 6 4 3 5 8 8 7 8 7 6 6 6 6 6 6 7 7 8 8 8 8 7
15 15 14 13 12 10 9 6 6 5 4 5 6 6 6 5 4 4 1 3 5 6 6 5 4 5 5 6 7 8 8 7 7 6 6 6 7 8 7 8 9 9 7
14 14 12 12 10 9 9 8 5 5 5 5 5 5 4 4 5 3 1 0 2 5 5 5 6 7 8 9 9 9 9 8 8 7 6 7 8 9 8 9 9 9 10
14 13 11 11 10 9 9 8 7 4 6 6 6 5 4 4 3 1 1 2 2 5 4 5 6 7 8 8 7 8 9 8 7 7 7 7 8 9 10 10 10 10 9
14 13 11 10 9 8 8 8 6 6 4 2 2 3 2 2 1 0 1 2 3 4 5 6 6 6 6 6 6 6 6 6 7 7 7 8 9 10 11 11 11 11 11
13 11 10 11 9 8 8 7 6 6 5 3 1 2 3 2 2 1 2 4 5 5 6 6 5 5 5 6 6 5 5 5 7 7 8 9 9 10 11 11 11 14 12
11 13 12 10 8 8 7 7 6 6 5 3 2 0 3 3 3 4 5 5 5 4 4 4 4 5 5 5 5 4 5 5 7 7 8 9 9 10 11 13 13 13 12
11 12 12 9 8 7 7 7 6 5 4 3 2 1 2 3 3 4 4 5 4 4 4 4 4 4 5 5 4 5 5 5 6 7 8 9 10 10 10 11 12 12 11
10 10 9 8 7 6 7 6 6 5 5 4 2 0 3 4 3 2 3 3 3 3 4 4 4 4 4 4 4 4 5 6 6 7 8 9 9 10 11 12 12 11 11
10 10 9 7 6 7 6 5 5 5 5 5 4 3 2 2 2 1 1 0 1 2 2 2 2 2 2 2 2 3 4 5 7 8 9 9 9 10 10 11 14 14 13
10 9 9 7 6 7 7 6 5 5 5 5 4 3 2 2 2 2 2 2 1 1 0 1 1 2 2 2 1 1 2 4 7 8 10 10 10 10 10 11 11 13 12
9 8 8 7 6 6 7 7 6 5 5 5 4 3 3 3 2 2 2 1 1 1 1 1 1 2 2 2 3 5 7 8 7 7 8 9 10 11 11 12 11 11 11
9 9 8 7 6 6 6 6 5 6 5 4 3 3 3 2 2 2 2 1 1 2 2 2 3 3 3 4 8 10 9 9 9 8 6 8 9 9 10 10 13 12 12
Wind_Direction
315 310 307 302 300 299 295 291 291 293 293 291 286 283 280 274 265 251 240 232 227 230 230 226 229 239 251 265 270 273 276 273 258 241 149 144 134 130 126 126 129 114 102
317 313 307 302 300 298 298 296 295 293 290 288 284 281 277 274 266 257 249 242 228 224 222 222 222 224 227 240 249 251 257 255 245 229 165 149 144 137 137 135 127 116 108
314 310 309 306 304 300 297 295 292 290 286 284 280 278 275 273 271 268 259 251 239 230 222 219 216 212 218 220 228 235 241 243 232 217 195 163 150 144 136 127 116 115 113
316 314 308 304 302 300 297 295 292 290 288 283 279 276 272 270 267 264 262 256 247 238 231 223 216 210 211 208 217 222 224 230 222 215 201 178 163 154 144 141 136 132 130
313 308 307 305 302 298 294 293 290 287 287 285 284 281 275 271 263 254 250 255 249 242 236 230 223 213 210 204 209 204 207 215 215 209 204 189 174 167 165 160 149 137 127
310 309 307 302 299 297 295 291 289 287 287 284 281 279 275 272 271 269 260 261 259 249 239 231 232 218 210 203 201 193 192 203 211 210 205 197 191 179 167 162 153 152 150
311 308 305 303 301 299 299 299 295 293 291 287 282 277 272 267 266 264 260 257 258 251 242 233 234 228 202 199 200 198 201 206 206 206 211 206 189 183 173 169 169 168 153
314 311 310 306 305 303 300 297 294 292 290 287 282 277 273 268 258 249 246 247 252 247 238 228 228 240 221 198 195 201 205 205 207 209 214 212 199 185 178 173 163 149 129
316 315 313 310 308 305 302 300 297 294 291 287 282 277 272 267 257 246 235 244 242 241 236 227 220 222 221 203 197 199 201 206 211 213 205 202 193 190 175 165 161 158 152
319 316 313 310 307 304 301 299 299 295 292 291 287 282 275 268 258 241 223 237 237 236 231 228 220 217 208 201 200 201 203 203 197 198 198 195 192 189 184 177 171 167 156
319 314 310 307 304 299 300 301 300 298 295 292 291 287 279 271 262 239 219 226 230 227 227 222 214 195 194 199 203 203 198 193 191 191 191 193 190 186 186 181 173 171 167
318 315 313 309 306 307 306 303 302 301 300 298 298 297 289 276 262 237 215 217 230 228 226 224 203 180 186 190 196 187 164 175 196 193 195 196 192 187 184 180 172 171 166
320 317 314 312 308 306 306 306 307 307 308 308 307 308 306 298 265 226 210 209 211 223 228 207 171 169 177 191 203 184 171 194 211 208 202 200 195 183 166 161 152 140 127
320 317 316 314 312 313 312 308 309 312 316 318 321 323 322 324 323 246 200 197 193 203 204 153 146 157 176 201 189 191 202 214 213 214 207 194 178 170 164 156 151 143 134
321 319 318 315 314 315 314 311 307 309 305 306 319 326 332 336 346 343 297 200 192 190 174 164 168 169 192 207 198 192 203 208 215 215 204 188 175 168 163 155 152 151 151
321 321 320 318 320 320 320 318 288 268 263 260 276 298 316 334 332 339 7 112 146 156 165 178 195 201 200 206 203 197 202 205 202 202 197 185 179 172 163 158 159 160 160
319 317 317 317 321 324 324 323 324 299 246 253 267 278 288 318 338 3 86 106 132 156 186 198 204 211 214 215 211 202 201 201 191 189 189 185 179 170 163 163 165 163 163
320 316 314 318 322 324 324 327 328 327 325 308 234 229 253 290 321 41 146 181 183 194 212 207 209 215 218 219 223 218 202 188 183 187 183 179 175 170 167 168 169 167 163
323 321 322 321 320 323 325 332 333 334 335 330 345 159 186 188 199 224 221 237 225 207 211 208 210 212 217 219 224 218 197 183 181 183 181 175 172 170 170 169 169 168 164
321 315 314 319 322 328 337 339 339 339 338 342 333 310 173 200 220 207 219 237 239 230 224 214 209 207 207 212 217 204 187 183 181 179 180 172 171 173 170 169 168 169 171
322 321 321 324 331 338 341 343 343 344 341 340 351 4 311 259 254 228 219 225 228 225 225 222 216 211 204 206 209 203 188 181 179 175 173 170 171 173 170 168 167 169 168
319 321 327 334 335 341 341 344 348 347 346 347 347 280 273 281 289 245 231 228 226 224 214 219 221 210 199 198 200 194 185 185 177 170 168 167 168 169 168 167 166 169 170
319 324 330 332 336 340 342 351 355 355 359 357 356 355 324 323 334 335 304 241 214 219 211 205 215 211 184 175 188 188 183 180 170 166 164 162 163 164 165 168 167 169 171
320 329 333 339 347 348 347 348 353 1 2 1 358 355 342 337 342 17 16 1 356 347 118 171 192 174 154 152 165 156 147 149 152 159 159 157 157 156 160 162 165 168 167
331 338 337 342 353 353 350 353 2 9 5 2 358 1 355 355 15 43 42 29 38 41 85 104 105 111 133 138 109 97 92 97 108 128 141 145 149 150 156 161 165 166 163
339 341 340 347 356 360 359 5 7 5 6 4 356 358 4 20 46 63 73 68 85 78 76 84 102 106 109 98 100 100 97 96 100 103 122 136 143 150 157 161 162 163 161
Height
1482 1479 1476 1473 1470 1467 1465 1462 1460 1458 1456 1454 1453 1452 1452 1451 1451 1452 1452 1452 1452 1453 1453 1454 1455 1457 1458 1461 1464 1467 1470 1473 1475 1478 1481 1483 1485 1487 1489 1491 1492 1494 1495
1477 1474 1471 1468 1465 1462 1459 1456 1454 1451 1449 1448 1446 1445 1444 1444 1445 1445 1445 1446 1446 1447 1448 1449 1450 1451 1453 1455 1458 1461 1464 1468 1472 1475 1478 1480 1483 1485 1487 1488 1490 1491 1493
1473 1469 1466 1463 1459 1456 1453 1450 1447 1445 1443 1441 1439 1438 1437 1437 1437 1437 1438 1439 1440 1441 1442 1443 1445 1446 1447 1449 1451 1454 1458 1462 1467 1471 1474 1476 1479 1482 1484 1486 1488 1490 1491
1468 1465 1461 1457 1454 1450 1447 1444 1441 1439 1436 1434 1432 1431 1430 1429 1429 1429 1430 1431 1432 1434 1436 1437 1439 1440 1442 1443 1445 1448 1452 1456 1460 1464 1468 1472 1475 1478 1480 1483 1486 1488 1490
1464 1460 1456 1452 1448 1445 1441 1438 1435 1432 1430 1427 1425 1423 1422 1421 1421 1421 1422 1423 1424 1426 1428 1430 1433 1434 1436 1438 1440 1442 1445 1449 1453 1457 1462 1466 1470 1473 1476 1479 1483 1486 1489
1459 1455 1451 1447 1443 1439 1436 1432 1429 1426 1423 1420 1418 1416 1414 1414 1414 1414 1415 1415 1416 1418 1420 1423 1426 1429 1430 1433 1435 1437 1440 1443 1447 1450 1455 1459 1463 1468 1472 1475 1479 1482 1486
1454 1450 1446 1442 1437 1433 1430 1426 1422 1419 1416 1413 1410 1407 1405 1404 1404 1404 1405 1407 1408 1410 1412 1416 1420 1423 1425 1427 1429 1431 1434 1437 1441 1445 1449 1453 1457 1462 1466 1470 1474 1479 1482
1449 1445 1440 1436 1432 1427 1423 1419 1416 1412 1409 1405 1402 1399 1397 1395 1395 1395 1396 1398 1399 1401 1404 1408 1412 1416 1419 1421 1424 1426 1428 1431 1435 1439 1443 1447 1452 1457 1462 1466 1470 1476 1480
1445 1440 1435 1430 1426 1421 1417 1413 1409 1405 1401 1398 1394 1391 1388 1386 1386 1386 1387 1388 1390 1393 1397 1401 1406 1410 1414 1417 1419 1421 1423 1426 1430 1433 1438 1442 1447 1451 1456 1461 1466 1471 1475
1440 1435 1429 1425 1420 1415 1411 1407 1403 1399 1395 1391 1387 1384 1381 1378 1378 1378 1379 1381 1383 1386 1390 1395 1399 1404 1408 1411 1415 1417 1420 1422 1425 1428 1432 1436 1441 1446 1451 1455 1460 1465 1469
1435 1429 1424 1419 1414 1410 1405 1401 1397 1393 1389 1385 1381 1377 1374 1372 1370 1370 1371 1373 1376 1380 1384 1388 1393 1398 1402 1406 1410 1414 1416 1419 1421 1424 1427 1431 1436 1441 1445 1450 1455 1460 1465
1430 1425 1419 1414 1409 1405 1400 1396 1392 1388 1384 1380 1376 1372 1369 1367 1365 1364 1365 1368 1372 1375 1379 1383 1388 1392 1397 1402 1406 1410 1413 1416 1418 1420 1423 1426 1430 1435 1440 1445 1451 1457 1462
1426 1420 1414 1409 1405 1401 1396 1392 1388 1384 1380 1376 1372 1369 1366 1363 1361 1361 1362 1364 1368 1372 1376 1380 1384 1388 1392 1397 1402 1405 1409 1412 1414 1417 1419 1422 1426 1431 1437 1441 1447 1453 1459
1422 1416 1410 1405 1401 1397 1392 1388 1384 1380 1376 1373 1370 1367 1364 1361 1359 1359 1360 1362 1365 1369 1373 1377 1381 1385 1389 1394 1398 1401 1405 1408 1411 1414 1416 1420 1424 1428 1432 1437 1443 1448 1454
1419 1413 1407 1402 1398 1393 1389 1385 1381 1377 1374 1371 1367 1365 1363 1360 1359 1358 1359 1361 1363 1367 1371 1375 1378 1382 1386 1390 1394 1398 1401 1404 1407 1410 1413 1416 1420 1424 1428 1433 1439 1444 1449
1416 1410 1405 1400 1396 1391 1387 1383 1378 1375 1372 1368 1366 1364 1362 1360 1359 1359 1359 1361 1363 1366 1370 1373 1376 1380 1383 1387 1391 1394 1397 1400 1403 1406 1409 1412 1416 1420 1424 1429 1435 1440 1445
1414 1409 1404 1399 1395 1390 1385 1381 1376 1373 1370 1367 1365 1363 1361 1360 1359 1359 1360 1361 1363 1366 1369 1372 1375 1378 1381 1385 1388 1391 1394 1396 1399 1402 1405 1409 1412 1416 1420 1425 1430 1436 1442
1412 1407 1403 1398 1394 1389 1384 1380 1376 1372 1369 1366 1364 1362 1361 1360 1359 1359 1360 1362 1363 1365 1368 1371 1373 1376 1379 1382 1385 1388 1390 1393 1395 1398 1401 1405 1408 1412 1416 1421 1427 1432 1437
1410 1406 1402 1397 1393 1389 1384 1380 1376 1372 1369 1366 1363 1362 1361 1360 1359 1359 1360 1361 1363 1365 1367 1370 1372 1374 1377 1379 1382 1384 1387 1389 1391 1394 1397 1400 1404 1408 1413 1418 1423 1428 1434
1409 1405 1401 1397 1393 1389 1385 1380 1376 1372 1369 1366 1364 1362 1361 1360 1360 1360 1360 1361 1363 1364 1366 1368 1371 1373 1375 1377 1379 1381 1383 1385 1387 1390 1393 1396 1400 1404 1409 1414 1419 1425 1431
1408 1405 1401 1397 1393 1389 1385 1381 1377 1373 1370 1367 1365 1363 1362 1361 1361 1360 1361 1361 1362 1364 1365 1367 1369 1371 1373 1375 1377 1378 1380 1382 1384 1386 1389 1392 1397 1401 1406 1411 1417 1423 1429
1408 1405 1401 1397 1394 1390 1386 1382 1378 1374 1371 1369 1366 1365 1363 1362 1361 1361 1361 1361 1362 1363 1364 1366 1368 1369 1371 1373 1374 1375 1377 1378 1380 1383 1386 1389 1393 1398 1403 1408 1414 1421 1427
1407 1405 1401 1398 1394 1390 1386 1383 1379 1376 1373 1370 1368 1366 1364 1363 1362 1361 1361 1361 1361 1362 1363 1365 1366 1368 1369 1370 1371 1373 1374 1375 1377 1380 1383 1386 1390 1395 1400 1406 1412 1418 1425
1407 1405 1402 1398 1395 1392 1388 1384 1381 1377 1374 1371 1369 1367 1365 1364 1363 1362 1361 1361 1361 1362 1363 1364 1365 1366 1367 1368 1369 1370 1371 1373 1375 1378 1381 1385 1388 1393 1399 1405 1411 1417 1423
1407 1405 1402 1399 1396 1393 1390 1386 1383 1380 1376 1373 1370 1368 1366 1365 1363 1362 1361 1361 1361 1361 1362 1363 1364 1365 1366 1367 1368 1368 1370 1372 1374 1377 1380 1384 1388 1393 1398 1404 1410 1416 1422
1407 1405 1402 1400 1397 1394 1391 1388 1385 1382 1379 1376 1373 1370 1368 1366 1364 1363 1362 1361 1361 1361 1362 1363 1363 1364 1365 1366 1367 1368 1371 1373 1375 1378 1381 1385 1389 1394 1399 1405 1411 1417 1423